Overview Statistics Trail Chart Weather Telemetry Raw packets
 

This is the latest recevied weather packets stored in our database for station/object KF7SOJ. If no packets are shown the sender has not sent any weather packets the latest 10 day(s).

<< 81 82 83 84 85 86 87 >>
Time Temp. Humidity Pressure Rain* Wind** Luminosity Snow
1788022040 20° C 63% 930.6 hPa 0 mm - 114 W/m² -
1788021735 20° C 64% 930.6 hPa 0 mm - 113 W/m² -
1788021434 20° C 64% 930.5 hPa 0 mm - 111 W/m² -
1788021128 20° C 64% 930.5 hPa 0 mm - 113 W/m² -
1788020823 20° C 62% 930.4 hPa 0 mm - 141 W/m² -
1788020518 20° C 61% 930.4 hPa 0 mm - 207 W/m² -
1788020214 20° C 61% 930.4 hPa 0 mm - 211 W/m² -
1788019909 20° C 61% 930.4 hPa 0 mm - 159 W/m² -
1788019604 20° C 58% 930.6 hPa 0 mm - 148 W/m² -
1788019303 20° C 56% 930.4 hPa 0 mm - 130 W/m² -
1788019002 20.56° C 54% 930.6 hPa 0 mm - 98 W/m² -
1788018697 20.56° C 53% 930.6 hPa 0 mm - 88 W/m² -
1788018396 20.56° C 52% 930.6 hPa 0 mm - 80 W/m² -
1788018091 20.56° C 52% 930.5 hPa 0 mm - 86 W/m² -
1788017787 20.56° C 52% 930.5 hPa 0 mm - 96 W/m² -
1788017483 20.56° C 52% 930.7 hPa 0 mm - 88 W/m² -
1788017181 20.56° C 53% 930.6 hPa 0 mm - 88 W/m² -
1788016880 20.56° C 53% 930.3 hPa 0 mm - 89 W/m² -
1788016578 20.56° C 53% 930.5 hPa 0 mm - 90 W/m² -
1788016274 20.56° C 53% 930.5 hPa 0 mm - 104 W/m² -
1788015972 20° C 53% 930.3 hPa 0 mm - 91 W/m² -
1788015669 20° C 56% 930.5 hPa 0 mm - 130 W/m² -
1788015368 19.44° C 56% 930.5 hPa 0 mm - 113 W/m² -
1788015062 20° C 56% 930.6 hPa 0 mm - 102 W/m² -
1788014760 20° C 54% 930.7 hPa 0 mm - 89 W/m² -

* Rain latest hour (hover to see other rain measurements)
** Current wind speed in m/s (hover to see current wind gust speed)